Location: Blankensee
(53.5126°N, 14.3055°E)
Time: 05:44:01
(UTC+00:00)

COSMOS 2428 - Pass Details

Date: 08 August 2020
Orbit: 844 x 859 km, 70.9° (Epoch: 24 September)

Event Time Altitude Azimuth Distance (km) Brightness Sun altitude
Rises 00:07:51 0° 323° (NW) 3,435 6.4 -19.3°
Reaches altitude 10° 00:10:32 10° 314° (NW) 2,496 5.5 -19.2°
Maximum altitude 00:15:31 32° 254° (WSW) 1,443 3.6 -19.0°
Enters shadow 00:16:49 29° 229° (SW) 1,536 3.6 -18.9°
